Today

Time Wind Dr Wind Spd
mph
Wind Gust
mph
Hum In
%
Humid
%
TempI
F
Temp
F
Raw Bar
in
Tot Rain
in
UV Solar
W/sqm
DailyRain
in
HourRain
in
24HrRain
in
RainRate
in
09/04/26 12:01:34 AM 30 0.0 0.0 50 66 72.4 65.4 29.901 7.41 0.0 0 0.00 0.00 0.00 0.00
09/04/26 12:02:26 AM 30 0.0 0.0 50 66 72.4 65.4 29.900 7.41 0.0 0 0.00 0.00 0.00 0.00
09/04/26 12:03:17 AM 30 0.0 0.0 50 66 72.4 65.4 29.899 7.41 0.0 0 0.00 0.00 0.00 0.00
09/04/26 12:04:27 AM 30 0.0 0.0 50 66 72.4 65.4 29.900 7.41 0.0 0 0.00 0.00 0.00 0.00
09/04/26 12:05:18 AM 30 0.0 0.0 50 66 72.4 65.4 29.900 7.41 0.0 0 0.00 0.00 0.00 0.00
09/04/26 12:06:30 AM 32 0.0 0.0 50 66 72.4 65.3 29.898 7.41 0.0 0 0.00 0.00 0.00 0.00
09/04/26 12:07:21 AM 32 0.0 0.0 50 66 72.4 65.3 29.901 7.41 0.0 0 0.00 0.00 0.00 0.00
09/04/26 12:08:34 AM 28 0.0 0.0 50 66 72.4 65.3 29.900 7.41 0.0 0 0.00 0.00 0.00 0.00
09/04/26 12:09:25 AM 32 0.0 0.0 50 66 72.4 65.3 29.900 7.41 0.0 0 0.00 0.00 0.00 0.00
09/04/26 12:10:34 AM 32 0.0 0.0 50 66 72.4 65.2 29.898 7.41 0.0 0 0.00 0.00 0.00 0.00
09/04/26 12:11:26 AM 29 0.0 0.0 50 67 72.4 65.2 29.899 7.41 0.0 0 0.00 0.00 0.00 0.00
09/04/26 12:12:17 AM 28 0.0 0.0 50 67 72.4 65.2 29.900 7.41 0.0 0 0.00 0.00 0.00 0.00
09/04/26 12:13:30 AM 31 0.0 0.0 50 67 72.4 65.2 29.900 7.41 0.0 0 0.00 0.00 0.00 0.00
09/04/26 12:14:21 AM 30 0.0 0.0 50 67 72.4 65.2 29.901 7.41 0.0 0 0.00 0.00 0.00 0.00
09/04/26 12:15:28 AM 30 0.0 0.0 50 67 72.4 65.2 29.902 7.41 0.0 0 0.00 0.00 0.00 0.00
09/04/26 12:16:19 AM 30 0.0 0.0 50 67 72.4 65.1 29.901 7.41 0.0 0 0.00 0.00 0.00 0.00
09/04/26 12:17:35 AM 29 0.0 0.0 50 68 72.4 65.1 29.903 7.41 0.0 0 0.00 0.00 0.00 0.00
09/04/26 12:18:26 AM 31 0.0 0.0 50 68 72.4 65.1 29.900 7.41 0.0 0 0.00 0.00 0.00 0.00
09/04/26 12:19:18 AM 32 0.0 0.0 50 68 72.3 65.1 29.903 7.41 0.0 0 0.00 0.00 0.00 0.00
09/04/26 12:20:24 AM 29 0.0 0.0 50 68 72.4 65.0 29.902 7.41 0.0 0 0.00 0.00 0.00 0.00
09/04/26 12:21:16 AM 32 0.0 0.0 50 68 72.4 65.0 29.904 7.41 0.0 0 0.00 0.00 0.00 0.00
09/04/26 12:22:28 AM 32 0.0 0.0 50 68 72.3 65.0 29.902 7.41 0.0 0 0.00 0.00 0.00 0.00
09/04/26 12:23:20 AM 29 0.0 0.0 50 68 72.4 65.0 29.904 7.41 0.0 0 0.00 0.00 0.00 0.00
09/04/26 12:24:32 AM 32 0.0 0.0 50 68 72.3 65.0 29.904 7.41 0.0 0 0.00 0.00 0.00 0.00
09/04/26 12:25:24 AM 34 0.0 0.0 50 68 72.3 64.9 29.904 7.41 0.0 0 0.00 0.00 0.00 0.00
09/04/26 12:26:30 AM 29 0.0 0.0 50 68 72.3 64.9 29.904 7.41 0.0 0 0.00 0.00 0.00 0.00
09/04/26 12:27:22 AM 29 0.0 0.0 50 68 72.3 64.9 29.903 7.41 0.0 0 0.00 0.00 0.00 0.00
09/04/26 12:28:34 AM 32 0.0 0.0 50 68 72.3 64.8 29.902 7.41 0.0 0 0.00 0.00 0.00 0.00
09/04/26 12:29:26 AM 32 0.0 0.0 50 68 72.3 64.8 29.903 7.41 0.0 0 0.00 0.00 0.00 0.00
09/04/26 12:30:20 AM 29 0.0 0.0 50 68 72.3 64.8 29.904 7.41 0.0 0 0.00 0.00 0.00 0.00
09/04/26 12:31:27 AM 28 0.0 0.0 50 68 72.3 64.8 29.905 7.41 0.0 0 0.00 0.00 0.00 0.00
09/04/26 12:32:18 AM 28 0.0 0.0 50 68 72.3 64.8 29.905 7.41 0.0 0 0.00 0.00 0.00 0.00
09/04/26 12:33:31 AM 34 0.0 0.0 50 69 72.3 64.8 29.905 7.41 0.0 0 0.00 0.00 0.00 0.00
09/04/26 12:34:22 AM 28 0.0 0.0 50 69 72.3 64.7 29.904 7.41 0.0 0 0.00 0.00 0.00 0.00
09/04/26 12:35:35 AM 31 0.0 0.0 50 69 72.3 64.7 29.901 7.41 0.0 0 0.00 0.00 0.00 0.00
09/04/26 12:36:23 AM 31 0.0 0.0 50 69 72.3 64.7 29.903 7.41 0.0 0 0.00 0.00 0.00 0.00
09/04/26 12:37:33 AM 32 0.0 0.0 50 69 72.3 64.6 29.901 7.41 0.0 0 0.00 0.00 0.00 0.00
09/04/26 12:38:27 AM 24 0.0 0.0 50 69 72.3 64.6 29.904 7.41 0.0 0 0.00 0.00 0.00 0.00
09/04/26 12:39:19 AM 32 0.0 0.0 50 70 72.3 64.6 29.902 7.41 0.0 0 0.00 0.00 0.00 0.00
09/04/26 12:40:32 AM 31 0.0 0.0 50 70 72.3 64.6 29.902 7.41 0.0 0 0.00 0.00 0.00 0.00
09/04/26 12:41:23 AM 32 0.0 0.0 50 70 72.3 64.5 29.902 7.41 0.0 0 0.00 0.00 0.00 0.00
09/04/26 12:42:30 AM 28 0.0 0.0 50 70 72.3 64.5 29.904 7.41 0.0 0 0.00 0.00 0.00 0.00
09/04/26 12:43:21 AM 29 0.0 0.0 50 70 72.3 64.5 29.903 7.41 0.0 0 0.00 0.00 0.00 0.00
09/04/26 12:44:34 AM 31 0.0 0.0 50 70 72.3 64.5 29.904 7.41 0.0 0 0.00 0.00 0.00 0.00
09/04/26 12:45:28 AM 29 0.0 0.0 50 70 72.2 64.5 29.905 7.41 0.0 0 0.00 0.00 0.00 0.00
09/04/26 12:46:20 AM 28 0.0 0.0 50 70 72.3 64.4 29.907 7.41 0.0 0 0.00 0.00 0.00 0.00
09/04/26 12:47:26 AM 30 0.0 0.0 50 70 72.2 64.4 29.906 7.41 0.0 0 0.00 0.00 0.00 0.00
09/04/26 12:48:18 AM 31 0.0 0.0 50 69 72.3 64.4 29.907 7.41 0.0 0 0.00 0.00 0.00 0.00
09/04/26 12:49:30 AM 31 0.0 0.0 50 69 72.2 64.3 29.906 7.41 0.0 0 0.00 0.00 0.00 0.00
09/04/26 12:50:22 AM 32 0.0 0.0 50 69 72.2 64.3 29.907 7.41 0.0 0 0.00 0.00 0.00 0.00
09/04/26 12:51:34 AM 31 0.0 0.0 50 69 72.2 64.3 29.907 7.41 0.0 0 0.00 0.00 0.00 0.00
09/04/26 12:52:23 AM 32 0.0 0.0 50 69 72.2 64.3 29.907 7.41 0.0 0 0.00 0.00 0.00 0.00
09/04/26 12:53:32 AM 32 0.0 0.0 50 69 72.2 64.3 29.906 7.41 0.0 0 0.00 0.00 0.00 0.00
09/04/26 12:54:27 AM 29 0.0 0.0 50 69 72.2 64.3 29.906 7.41 0.0 0 0.00 0.00 0.00 0.00
09/04/26 12:55:18 AM 28 0.0 0.0 50 69 72.2 64.2 29.904 7.41 0.0 0 0.00 0.00 0.00 0.00
09/04/26 12:56:31 AM 30 0.0 0.0 50 69 72.2 64.2 29.905 7.41 0.0 0 0.00 0.00 0.00 0.00
09/04/26 12:57:25 AM 34 0.0 0.0 50 69 72.2 64.2 29.906 7.41 0.0 0 0.00 0.00 0.00 0.00
09/04/26 12:58:32 AM 25 0.0 0.0 50 69 72.2 64.1 29.906 7.41 0.0 0 0.00 0.00 0.00 0.00
09/04/26 12:59:23 AM 31 0.0 0.0 50 69 72.2 64.1 29.904 7.41 0.0 0 0.00 0.00 0.00 0.00
09/04/26 1:00:39 AM 32 0.0 0.0 50 70 72.2 64.1 29.903 7.41 0.0 0 0.00 0.00 0.00 0.00
09/04/26 1:01:27 AM 32 0.0 0.0 50 70 72.2 64.1 29.903 7.41 0.0 0 0.00 0.00 0.00 0.00
09/04/26 1:02:22 AM 29 0.0 0.0 50 70 72.2 64.1 29.905 7.41 0.0 0 0.00 0.00 0.00 0.00
09/04/26 1:03:28 AM 31 0.0 0.0 50 70 72.2 64.1 29.904 7.41 0.0 0 0.00 0.00 0.00 0.00
09/04/26 1:04:20 AM 28 0.0 0.0 50 70 72.2 64.1 29.904 7.41 0.0 0 0.00 0.00 0.00 0.00
09/04/26 1:05:29 AM 32 0.0 0.0 50 70 72.2 64.0 29.904 7.41 0.0 0 0.00 0.00 0.00 0.00
09/04/26 1:06:24 AM 28 0.0 0.0 50 71 72.1 64.0 29.903 7.41 0.0 0 0.00 0.00 0.00 0.00
09/04/26 1:07:36 AM 26 0.0 0.0 50 71 72.2 64.0 29.903 7.41 0.0 0 0.00 0.00 0.00 0.00
09/04/26 1:08:25 AM 34 0.0 0.0 50 71 72.2 64.0 29.904 7.41 0.0 0 0.00 0.00 0.00 0.00
09/04/26 1:09:37 AM 28 0.0 0.0 50 71 72.1 64.0 29.902 7.41 0.0 0 0.00 0.00 0.00 0.00
09/04/26 1:10:26 AM 30 0.0 0.0 50 71 72.1 63.9 29.901 7.41 0.0 0 0.00 0.00 0.00 0.00
09/04/26 1:11:20 AM 28 0.0 0.0 50 71 72.2 63.9 29.901 7.41 0.0 0 0.00 0.00 0.00 0.00
09/04/26 1:12:30 AM 32 0.0 0.0 50 71 72.1 63.9 29.901 7.41 0.0 0 0.00 0.00 0.00 0.00
09/04/26 1:13:24 AM 32 0.0 0.0 50 71 72.1 63.8 29.902 7.41 0.0 0 0.00 0.00 0.00 0.00
09/04/26 1:14:34 AM 34 0.0 0.0 50 71 72.1 63.8 29.902 7.41 0.0 0 0.00 0.00 0.00 0.00
09/04/26 1:15:25 AM 31 0.0 0.0 50 71 72.1 63.8 29.901 7.41 0.0 0 0.00 0.00 0.00 0.00
09/04/26 1:16:17 AM 28 0.0 0.0 50 71 72.1 63.8 29.902 7.41 0.0 0 0.00 0.00 0.00 0.00
09/04/26 1:17:29 AM 28 0.0 0.0 50 71 72.1 63.8 29.904 7.41 0.0 0 0.00 0.00 0.00 0.00
09/04/26 1:18:21 AM 28 0.0 0.0 50 71 72.1 63.7 29.903 7.41 0.0 0 0.00 0.00 0.00 0.00
09/04/26 1:19:31 AM 32 0.0 0.0 50 71 72.1 63.7 29.904 7.41 0.0 0 0.00 0.00 0.00 0.00
09/04/26 1:20:22 AM 32 0.0 0.0 50 71 72.1 63.7 29.902 7.41 0.0 0 0.00 0.00 0.00 0.00
09/04/26 1:21:38 AM 30 0.0 0.0 50 71 72.1 63.7 29.903 7.41 0.0 0 0.00 0.00 0.00 0.00
09/04/26 1:22:26 AM 25 0.0 0.0 50 71 72.1 63.6 29.902 7.41 0.0 0 0.00 0.00 0.00 0.00
09/04/26 1:23:21 AM 32 0.0 0.0 50 71 72.1 63.6 29.902 7.41 0.0 0 0.00 0.00 0.00 0.00
09/04/26 1:24:27 AM 29 0.0 0.0 50 71 72.1 63.6 29.901 7.41 0.0 0 0.00 0.00 0.00 0.00
09/04/26 1:25:19 AM 32 0.0 0.0 50 71 72.1 63.6 29.902 7.41 0.0 0 0.00 0.00 0.00 0.00
09/04/26 1:26:31 AM 34 0.0 0.0 50 71 72.1 63.6 29.902 7.41 0.0 0 0.00 0.00 0.00 0.00
09/04/26 1:27:23 AM 30 0.0 0.0 50 71 72.1 63.6 29.903 7.41 0.0 0 0.00 0.00 0.00 0.00
09/04/26 1:28:35 AM 31 0.0 0.0 50 71 72.0 63.6 29.903 7.41 0.0 0 0.00 0.00 0.00 0.00
09/04/26 1:33:31 AM 30 0.0 0.0 50 71 72.1 63.5 29.905 7.41 0.0 0 0.00 0.00 0.00 0.00
09/04/26 1:34:22 AM 26 0.0 0.0 50 71 72.0 63.4 29.902 7.41 0.0 0 0.00 0.00 0.00 0.00
09/04/26 1:35:32 AM 30 0.0 0.0 50 71 72.0 63.4 29.904 7.41 0.0 0 0.00 0.00 0.00 0.00
09/04/26 1:36:24 AM 32 0.0 0.0 50 71 72.0 63.4 29.903 7.41 0.0 0 0.00 0.00 0.00 0.00
09/04/26 1:37:33 AM 28 0.0 0.0 50 72 72.0 63.4 29.906 7.41 0.0 0 0.00 0.00 0.00 0.00
09/04/26 1:38:28 AM 34 0.0 0.0 50 72 72.0 63.4 29.906 7.41 0.0 0 0.00 0.00 0.00 0.00
09/04/26 1:39:16 AM 31 0.0 0.0 50 72 72.0 63.3 29.903 7.41 0.0 0 0.00 0.00 0.00 0.00
09/04/26 1:40:26 AM 34 0.0 0.0 50 72 72.0 63.3 29.904 7.41 0.0 0 0.00 0.00 0.00 0.00
09/04/26 1:41:17 AM 34 0.0 0.0 50 72 72.0 63.3 29.904 7.41 0.0 0 0.00 0.00 0.00 0.00
09/04/26 1:42:30 AM 32 0.0 0.0 50 72 72.0 63.3 29.902 7.41 0.0 0 0.00 0.00 0.00 0.00
09/04/26 1:43:21 AM 32 0.0 0.0 50 72 72.0 63.2 29.901 7.41 0.0 0 0.00 0.00 0.00 0.00
09/04/26 1:44:34 AM 30 0.0 0.0 50 72 72.0 63.2 29.898 7.41 0.0 0 0.00 0.00 0.00 0.00
09/04/26 1:45:50 AM 28 0.0 0.0 50 72 72.0 63.1 29.902 7.41 0.0 0 0.00 0.00 0.00 0.00
09/04/26 1:46:35 AM 31 0.0 0.0 51 72 72.0 63.1 29.900 7.41 0.0 0 0.00 0.00 0.00 0.00
09/04/26 1:47:27 AM 31 0.0 0.0 51 72 72.0 63.1 29.898 7.41 0.0 0 0.00 0.00 0.00 0.00
09/04/26 1:48:21 AM 32 0.0 0.0 51 72 72.0 63.1 29.899 7.41 0.0 0 0.00 0.00 0.00 0.00
09/04/26 1:49:34 AM 30 0.0 0.0 51 72 72.0 63.1 29.901 7.41 0.0 0 0.00 0.00 0.00 0.00
09/04/26 1:50:22 AM 32 0.0 0.0 51 72 72.0 63.1 29.899 7.41 0.0 0 0.00 0.00 0.00 0.00
09/04/26 1:51:29 AM 31 0.0 0.0 51 73 71.9 63.0 29.900 7.41 0.0 0 0.00 0.00 0.00 0.00
09/04/26 1:52:23 AM 29 0.0 0.0 51 73 71.9 63.0 29.900 7.41 0.0 0 0.00 0.00 0.00 0.00
09/04/26 1:53:33 AM 29 0.0 0.0 51 73 72.0 63.0 29.899 7.41 0.0 0 0.00 0.00 0.00 0.00
09/04/26 1:54:27 AM 32 0.0 0.0 51 73 71.9 63.0 29.897 7.41 0.0 0 0.00 0.00 0.00 0.00
09/04/26 1:55:19 AM 30 0.0 0.0 51 73 71.9 63.0 29.899 7.41 0.0 0 0.00 0.00 0.00 0.00
09/04/26 1:56:32 AM 31 0.0 0.0 51 73 71.9 63.0 29.898 7.41 0.0 0 0.00 0.00 0.00 0.00
09/04/26 1:57:17 AM 32 0.0 0.0 51 73 71.9 62.9 29.898 7.41 0.0 0 0.00 0.00 0.00 0.00
09/04/26 1:58:30 AM 31 0.0 0.0 51 73 71.9 62.9 29.899 7.41 0.0 0 0.00 0.00 0.00 0.00
09/04/26 1:59:21 AM 28 0.0 0.0 51 73 71.9 62.9 29.895 7.41 0.0 0 0.00 0.00 0.00 0.00
09/04/26 2:00:37 AM 32 0.0 0.0 51 73 71.9 62.9 29.896 7.41 0.0 0 0.00 0.00 0.00 0.00
09/04/26 2:01:25 AM 30 0.0 0.0 51 73 71.9 62.9 29.896 7.41 0.0 0 0.00 0.00 0.00 0.00
09/04/26 2:02:35 AM 26 0.0 0.0 51 73 71.9 62.9 29.897 7.41 0.0 0 0.00 0.00 0.00 0.00
09/04/26 2:03:26 AM 34 0.0 0.0 51 73 71.9 62.9 29.897 7.41 0.0 0 0.00 0.00 0.00 0.00
09/04/26 2:04:18 AM 32 0.0 0.0 51 73 71.9 62.9 29.898 7.41 0.0 0 0.00 0.00 0.00 0.00
09/04/26 2:05:30 AM 26 0.0 0.0 51 73 71.9 62.9 29.899 7.41 0.0 0 0.00 0.00 0.00 0.00
09/04/26 2:06:22 AM 32 0.0 0.0 51 73 71.9 62.9 29.898 7.41 0.0 0 0.00 0.00 0.00 0.00
09/04/26 2:07:29 AM 32 0.0 0.0 51 73 71.9 62.9 29.899 7.41 0.0 0 0.00 0.00 0.00 0.00
09/04/26 2:08:23 AM 31 0.0 0.0 51 73 71.9 62.9 29.899 7.41 0.0 0 0.00 0.00 0.00 0.00
09/04/26 2:09:33 AM 34 0.0 0.0 51 73 71.9 62.8 29.900 7.41 0.0 0 0.00 0.00 0.00 0.00
09/04/26 2:10:27 AM 28 0.0 0.0 51 73 71.9 62.8 29.899 7.41 0.0 0 0.00 0.00 0.00 0.00
09/04/26 2:11:19 AM 28 0.0 0.0 51 73 71.8 62.8 29.899 7.41 0.0 0 0.00 0.00 0.00 0.00
09/04/26 2:12:31 AM 26 0.0 0.0 51 73 71.9 62.8 29.900 7.41 0.0 0 0.00 0.00 0.00 0.00
09/04/26 2:13:20 AM 29 0.0 0.0 51 74 71.9 62.8 29.898 7.41 0.0 0 0.00 0.00 0.00 0.00
09/04/26 2:14:30 AM 32 0.0 0.0 51 74 71.9 62.8 29.900 7.41 0.0 0 0.00 0.00 0.00 0.00
09/04/26 2:15:24 AM 34 0.0 0.0 51 74 71.8 62.8 29.897 7.41 0.0 0 0.00 0.00 0.00 0.00
09/04/26 2:16:34 AM 29 0.0 0.0 51 74 71.8 62.8 29.899 7.41 0.0 0 0.00 0.00 0.00 0.00
09/04/26 2:17:28 AM 26 0.0 0.0 51 74 71.8 62.7 29.900 7.41 0.0 0 0.00 0.00 0.00 0.00
09/04/26 2:18:35 AM 31 0.0 0.0 51 74 71.9 62.7 29.898 7.41 0.0 0 0.00 0.00 0.00 0.00
09/04/26 2:19:26 AM 29 0.0 0.0 51 74 71.8 62.7 29.899 7.41 0.0 0 0.00 0.00 0.00 0.00
09/04/26 2:20:18 AM 28 0.0 0.0 51 74 71.9 62.7 29.898 7.41 0.0 0 0.00 0.00 0.00 0.00
09/04/26 2:21:30 AM 34 0.0 0.0 51 74 71.8 62.7 29.900 7.41 0.0 0 0.00 0.00 0.00 0.00
09/04/26 2:22:22 AM 31 0.0 0.0 51 74 71.9 62.7 29.899 7.41 0.0 0 0.00 0.00 0.00 0.00
09/04/26 2:23:28 AM 34 0.0 0.0 51 74 71.8 62.7 29.900 7.41 0.0 0 0.00 0.00 0.00 0.00
09/04/26 2:24:23 AM 31 0.0 0.0 51 74 71.9 62.7 29.899 7.41 0.0 0 0.00 0.00 0.00 0.00
09/04/26 2:25:33 AM 30 0.0 0.0 51 74 71.8 62.7 29.899 7.41 0.0 0 0.00 0.00 0.00 0.00
09/04/26 2:26:24 AM 32 0.0 0.0 51 74 71.8 62.7 29.899 7.41 0.0 0 0.00 0.00 0.00 0.00
09/04/26 2:27:16 AM 32 0.0 0.0 51 74 71.8 62.7 29.898 7.41 0.0 0 0.00 0.00 0.00 0.00
09/04/26 2:28:28 AM 31 0.0 0.0 51 74 71.8 62.7 29.900 7.41 0.0 0 0.00 0.00 0.00 0.00
09/04/26 2:29:17 AM 31 0.0 0.0 51 74 71.8 62.6 29.900 7.41 0.0 0 0.00 0.00 0.00 0.00
09/04/26 2:30:51 AM 31 0.0 0.0 51 74 71.7 62.6 29.898 7.41 0.0 0 0.00 0.00 0.00 0.00
09/04/26 2:31:24 AM 32 0.0 0.0 51 74 71.8 62.6 29.899 7.41 0.0 0 0.00 0.00 0.00 0.00
09/04/26 2:32:34 AM 30 0.0 0.0 51 74 71.8 62.6 29.901 7.41 0.0 0 0.00 0.00 0.00 0.00
09/04/26 2:33:28 AM 32 0.0 0.0 51 74 71.8 62.5 29.898 7.41 0.0 0 0.00 0.00 0.00 0.00
09/04/26 2:34:17 AM 28 0.0 0.0 51 74 71.8 62.5 29.897 7.41 0.0 0 0.00 0.00 0.00 0.00
09/04/26 2:35:26 AM 35 0.0 0.0 51 74 71.7 62.5 29.901 7.41 0.0 0 0.00 0.00 0.00 0.00
09/04/26 2:36:18 AM 28 0.0 0.0 51 74 71.7 62.5 29.897 7.41 0.0 0 0.00 0.00 0.00 0.00
09/04/26 2:37:31 AM 31 0.0 0.0 51 74 71.7 62.5 29.898 7.41 0.0 0 0.00 0.00 0.00 0.00
09/04/26 2:38:22 AM 31 0.0 0.0 51 74 71.7 62.4 29.898 7.41 0.0 0 0.00 0.00 0.00 0.00
09/04/26 2:39:35 AM 31 0.0 0.0 51 74 71.7 62.4 29.896 7.41 0.0 0 0.00 0.00 0.00 0.00
09/04/26 2:40:23 AM 32 0.0 0.0 51 74 71.7 62.3 29.897 7.41 0.0 0 0.00 0.00 0.00 0.00
09/04/26 2:41:33 AM 28 0.0 0.0 51 75 71.7 62.3 29.897 7.41 0.0 0 0.00 0.00 0.00 0.00
09/04/26 2:42:28 AM 31 0.0 0.0 51 75 71.7 62.3 29.896 7.41 0.0 0 0.00 0.00 0.00 0.00
09/04/26 2:43:19 AM 32 0.0 0.0 51 75 71.7 62.3 29.894 7.41 0.0 0 0.00 0.00 0.00 0.00
09/04/26 2:44:29 AM 31 0.0 0.0 51 75 71.7 62.2 29.898 7.41 0.0 0 0.00 0.00 0.00 0.00
09/04/26 2:45:20 AM 28 0.0 0.0 51 75 71.7 62.2 29.901 7.41 0.0 0 0.00 0.00 0.00 0.00
09/04/26 2:46:30 AM 31 0.0 0.0 51 75 71.7 62.2 29.898 7.41 0.0 0 0.00 0.00 0.00 0.00
09/04/26 2:47:21 AM 30 0.0 0.0 51 75 71.7 62.2 29.897 7.41 0.0 0 0.00 0.00 0.00 0.00
09/04/26 2:48:34 AM 31 0.0 0.0 51 75 71.7 62.2 29.896 7.41 0.0 0 0.00 0.00 0.00 0.00
09/04/26 2:49:26 AM 32 0.0 0.0 51 75 71.7 62.2 29.899 7.41 0.0 0 0.00 0.00 0.00 0.00
09/04/26 2:50:17 AM 31 0.0 0.0 51 76 71.7 62.2 29.898 7.41 0.0 0 0.00 0.00 0.00 0.00
09/04/26 2:51:24 AM 32 0.0 0.0 51 76 71.7 62.1 29.900 7.41 0.0 0 0.00 0.00 0.00 0.00
09/04/26 2:52:18 AM 32 0.0 0.0 51 76 71.7 62.2 29.898 7.41 0.0 0 0.00 0.00 0.00 0.00
09/04/26 2:53:28 AM 28 0.0 0.0 51 76 71.6 62.2 29.898 7.41 0.0 0 0.00 0.00 0.00 0.00
09/04/26 2:54:19 AM 31 0.0 0.0 51 76 71.7 62.1 29.898 7.41 0.0 0 0.00 0.00 0.00 0.00
09/04/26 2:55:35 AM 27 0.0 0.0 51 76 71.6 62.1 29.899 7.41 0.0 0 0.00 0.00 0.00 0.00
09/04/26 2:56:21 AM 28 0.0 0.0 51 76 71.7 62.1 29.899 7.41 0.0 0 0.00 0.00 0.00 0.00
09/04/26 2:57:33 AM 28 0.0 0.0 51 76 71.6 62.1 29.898 7.41 0.0 0 0.00 0.00 0.00 0.00
09/04/26 2:58:22 AM 32 0.0 0.0 51 76 71.6 62.1 29.899 7.41 0.0 0 0.00 0.00 0.00 0.00
09/04/26 2:59:35 AM 30 0.0 0.0 51 76 71.7 62.0 29.899 7.41 0.0 0 0.00 0.00 0.00 0.00
09/04/26 3:00:29 AM 28 0.0 0.0 51 76 71.6 62.1 29.898 7.41 0.0 0 0.00 0.00 0.00 0.00
09/04/26 3:01:36 AM 32 0.0 0.0 51 76 71.6 62.0 29.899 7.41 0.0 0 0.00 0.00 0.00 0.00
09/04/26 3:02:27 AM 28 0.0 0.0 51 76 71.6 62.0 29.898 7.41 0.0 0 0.00 0.00 0.00 0.00
09/04/26 3:03:19 AM 31 0.0 0.0 51 76 71.6 62.0 29.896 7.41 0.0 0 0.00 0.00 0.00 0.00
09/04/26 3:04:31 AM 34 0.0 0.0 51 76 71.6 62.0 29.897 7.41 0.0 0 0.00 0.00 0.00 0.00
09/04/26 3:05:23 AM 27 0.0 0.0 51 76 71.6 62.0 29.899 7.41 0.0 0 0.00 0.00 0.00 0.00
09/04/26 3:06:33 AM 34 0.0 0.0 51 76 71.6 61.9 29.898 7.41 0.0 0 0.00 0.00 0.00 0.00
09/04/26 3:07:24 AM 32 0.0 0.0 51 76 71.6 61.9 29.897 7.41 0.0 0 0.00 0.00 0.00 0.00
09/04/26 3:08:37 AM 31 0.0 0.0 51 76 71.5 61.8 29.899 7.41 0.0 0 0.00 0.00 0.00 0.00
09/04/26 3:09:28 AM 32 0.0 0.0 51 76 71.6 61.8 29.901 7.41 0.0 0 0.00 0.00 0.00 0.00
09/04/26 3:10:20 AM 35 0.0 0.0 52 76 71.5 61.8 29.898 7.41 0.0 0 0.00 0.00 0.00 0.00
09/04/26 3:11:33 AM 31 0.0 0.0 52 76 71.5 61.8 29.897 7.41 0.0 0 0.00 0.00 0.00 0.00
09/04/26 3:12:21 AM 31 0.0 0.0 52 76 71.5 61.8 29.899 7.41 0.0 0 0.00 0.00 0.00 0.00
09/04/26 3:13:31 AM 31 0.0 0.0 52 76 71.5 61.8 29.898 7.41 0.0 0 0.00 0.00 0.00 0.00
09/04/26 3:14:22 AM 31 0.0 0.0 52 76 71.5 61.8 29.899 7.41 0.0 0 0.00 0.00 0.00 0.00
09/04/26 3:16:32 AM 31 0.0 0.0 52 76 71.6 61.8 29.897 7.41 0.0 0 0.00 0.00 0.00 0.00
09/04/26 3:17:39 AM 31 0.0 0.0 52 76 71.8 61.8 29.898 7.41 0.0 0 0.00 0.00 0.00 0.00
09/04/26 3:18:09 AM 31 0.0 0.0 52 76 71.8 61.7 29.898 7.41 0.0 0 0.00 0.00 0.00 0.00
09/04/26 3:18:40 AM 32 0.0 0.0 52 77 71.8 61.7 29.898 7.41 0.0 0 0.00 0.00 0.00 0.00
09/04/26 3:19:31 AM 32 0.0 0.0 52 77 71.8 61.6 29.898 7.41 0.0 0 0.00 0.00 0.00 0.00
09/04/26 3:20:23 AM 31 0.0 0.0 52 77 71.7 61.6 29.898 7.41 0.0 0 0.00 0.00 0.00 0.00
09/04/26 3:21:33 AM 32 0.0 0.0 52 77 71.7 61.6 29.900 7.41 0.0 0 0.00 0.00 0.00 0.00
09/04/26 3:22:24 AM 28 0.0 0.0 52 77 71.6 61.5 29.899 7.41 0.0 0 0.00 0.00 0.00 0.00
09/04/26 3:23:19 AM 30 0.0 0.0 52 77 71.6 61.5 29.899 7.41 0.0 0 0.00 0.00 0.00 0.00
09/04/26 3:24:25 AM 28 0.0 0.0 52 77 71.6 61.5 29.899 7.41 0.0 0 0.00 0.00 0.00 0.00
09/04/26 3:25:17 AM 32 0.0 0.0 52 77 71.5 61.4 29.899 7.41 0.0 0 0.00 0.00 0.00 0.00
09/04/26 3:26:30 AM 28 0.0 0.0 52 77 71.5 61.4 29.899 7.41 0.0 0 0.00 0.00 0.00 0.00
09/04/26 3:27:21 AM 31 0.0 0.0 52 77 71.5 61.4 29.898 7.41 0.0 0 0.00 0.00 0.00 0.00
09/04/26 3:28:34 AM 32 0.0 0.0 52 77 71.5 61.3 29.899 7.41 0.0 0 0.00 0.00 0.00 0.00
09/04/26 3:29:28 AM 32 0.0 0.0 52 77 71.5 61.3 29.900 7.41 0.0 0 0.00 0.00 0.00 0.00
09/04/26 3:30:17 AM 32 0.0 0.0 52 77 71.5 61.3 29.898 7.41 0.0 0 0.00 0.00 0.00 0.00
09/04/26 3:31:27 AM 30 0.0 0.0 52 77 71.5 61.3 29.899 7.41 0.0 0 0.00 0.00 0.00 0.00
09/04/26 3:32:21 AM 30 0.0 0.0 52 77 71.5 61.3 29.899 7.41 0.0 0 0.00 0.00 0.00 0.00
09/04/26 3:33:31 AM 32 0.0 0.0 52 77 71.5 61.3 29.900 7.41 0.0 0 0.00 0.00 0.00 0.00
09/04/26 3:34:22 AM 28 0.0 0.0 52 77 71.4 61.2 29.900 7.41 0.0 0 0.00 0.00 0.00 0.00
09/04/26 3:35:29 AM 30 0.0 0.0 52 77 71.5 61.2 29.898 7.41 0.0 0 0.00 0.00 0.00 0.00
09/04/26 3:36:23 AM 28 0.0 0.0 52 77 71.4 61.2 29.898 7.41 0.0 0 0.00 0.00 0.00 0.00
09/04/26 3:37:33 AM 35 0.0 0.0 52 77 71.4 61.2 29.898 7.41 0.0 0 0.00 0.00 0.00 0.00
09/04/26 3:38:25 AM 34 0.0 0.0 52 77 71.4 61.2 29.901 7.41 0.0 0 0.00 0.00 0.00 0.00
09/04/26 3:39:34 AM 31 0.0 0.0 52 77 71.4 61.1 29.899 7.41 0.0 0 0.00 0.00 0.00 0.00
09/04/26 3:40:23 AM 32 0.0 0.0 52 77 71.4 61.1 29.899 7.41 0.0 0 0.00 0.00 0.00 0.00
09/04/26 3:41:18 AM 31 0.0 0.0 52 77 71.4 61.1 29.899 7.41 0.0 0 0.00 0.00 0.00 0.00
09/04/26 3:42:30 AM 32 0.0 0.0 52 77 71.4 61.1 29.901 7.41 0.0 0 0.00 0.00 0.00 0.00
09/04/26 3:43:22 AM 32 0.0 0.0 52 77 71.4 61.1 29.902 7.41 0.0 0 0.00 0.00 0.00 0.00
09/04/26 3:44:34 AM 31 0.0 0.0 52 77 71.4 61.1 29.900 7.41 0.0 0 0.00 0.00 0.00 0.00
09/04/26 3:45:29 AM 32 0.0 0.0 52 77 71.3 61.0 29.905 7.41 0.0 0 0.00 0.00 0.00 0.00
09/04/26 3:46:33 AM 30 0.0 0.0 52 77 71.4 61.0 29.901 7.41 0.0 0 0.00 0.00 0.00 0.00
09/04/26 3:47:27 AM 28 0.0 0.0 52 77 71.3 61.0 29.900 7.41 0.0 0 0.00 0.00 0.00 0.00
09/04/26 3:48:19 AM 28 0.0 0.0 52 77 71.3 61.0 29.900 7.41 0.0 0 0.00 0.00 0.00 0.00
09/04/26 3:49:31 AM 30 0.0 0.0 52 77 71.3 60.9 29.900 7.41 0.0 0 0.00 0.00 0.00 0.00
09/04/26 3:50:23 AM 34 0.0 0.0 52 77 71.3 60.9 29.900 7.41 0.0 0 0.00 0.00 0.00 0.00
09/04/26 3:51:33 AM 31 0.0 0.0 52 77 71.3 60.9 29.899 7.41 0.0 0 0.00 0.00 0.00 0.00
09/04/26 3:52:24 AM 34 0.0 0.0 52 77 71.3 60.9 29.902 7.41 0.0 0 0.00 0.00 0.00 0.00
09/04/26 3:53:37 AM 31 0.0 0.0 52 78 71.3 60.9 29.900 7.41 0.0 0 0.00 0.00 0.00 0.00
09/04/26 3:54:29 AM 30 0.0 0.0 52 78 71.3 60.8 29.898 7.41 0.0 0 0.00 0.00 0.00 0.00
09/04/26 3:55:20 AM 31 0.0 0.0 52 78 71.3 60.8 29.898 7.41 0.0 0 0.00 0.00 0.00 0.00
09/04/26 3:56:27 AM 31 0.0 0.0 52 78 71.3 60.8 29.898 7.41 0.0 0 0.00 0.00 0.00 0.00
09/04/26 3:57:21 AM 32 0.0 0.0 52 78 71.3 60.8 29.900 7.41 0.0 0 0.00 0.00 0.00 0.00
09/04/26 3:58:34 AM 30 0.0 0.0 52 78 71.3 60.8 29.900 7.41 0.0 0 0.00 0.00 0.00 0.00
09/04/26 3:59:26 AM 28 0.0 0.0 52 78 71.3 60.8 29.899 7.41 0.0 0 0.00 0.00 0.00 0.00
09/04/26 4:00:20 AM 34 0.0 0.0 52 78 71.3 60.8 29.898 7.41 0.0 0 0.00 0.00 0.00 0.00
09/04/26 4:01:30 AM 35 0.0 0.0 52 78 71.3 60.8 29.902 7.41 0.0 0 0.00 0.00 0.00 0.00
09/04/26 4:02:18 AM 28 0.0 0.0 52 78 71.3 60.8 29.899 7.41 0.0 0 0.00 0.00 0.00 0.00
09/04/26 4:03:31 AM 31 0.0 0.0 52 78 71.2 60.8 29.898 7.41 0.0 0 0.00 0.00 0.00 0.00
09/04/26 4:04:23 AM 31 0.0 0.0 52 78 71.3 60.7 29.899 7.41 0.0 0 0.00 0.00 0.00 0.00
09/04/26 4:05:35 AM 31 0.0 0.0 52 79 71.2 60.7 29.900 7.41 0.0 0 0.00 0.00 0.00 0.00
09/04/26 4:06:27 AM 32 0.0 0.0 52 79 71.2 60.7 29.899 7.41 0.0 0 0.00 0.00 0.00 0.00
09/04/26 4:07:33 AM 31 0.0 0.0 52 79 71.2 60.7 29.898 7.41 0.0 0 0.00 0.00 0.00 0.00
09/04/26 4:08:25 AM 28 0.0 0.0 52 79 71.2 60.7 29.900 7.41 0.0 0 0.00 0.00 0.00 0.00
09/04/26 4:09:17 AM 32 0.0 0.0 52 79 71.2 60.7 29.898 7.41 0.0 0 0.00 0.00 0.00 0.00
09/04/26 4:10:29 AM 30 0.0 0.0 52 79 71.2 60.7 29.897 7.41 0.0 0 0.00 0.00 0.00 0.00
09/04/26 4:11:21 AM 28 0.0 0.0 52 79 71.2 60.7 29.898 7.41 0.0 0 0.00 0.00 0.00 0.00
09/04/26 4:12:31 AM 32 0.0 0.0 52 79 71.2 60.7 29.900 7.41 0.0 0 0.00 0.00 0.00 0.00
09/04/26 4:13:22 AM 30 0.0 0.0 52 79 71.2 60.7 29.898 7.41 0.0 0 0.00 0.00 0.00 0.00
09/04/26 4:14:35 AM 29 0.0 0.0 52 79 71.2 60.7 29.900 7.41 0.0 0 0.00 0.00 0.00 0.00
09/04/26 4:15:26 AM 32 0.0 0.0 52 79 71.2 60.7 29.898 7.41 0.0 0 0.00 0.00 0.00 0.00
09/04/26 4:16:18 AM 31 0.0 0.0 52 79 71.2 60.7 29.899 7.41 0.0 0 0.00 0.00 0.00 0.00
09/04/26 4:17:31 AM 32 0.0 0.0 52 80 71.2 60.7 29.898 7.41 0.0 0 0.00 0.00 0.00 0.00
09/04/26 4:18:19 AM 32 0.0 0.0 52 80 71.1 60.7 29.897 7.41 0.0 0 0.00 0.00 0.00 0.00
09/04/26 4:19:29 AM 26 0.0 0.0 52 80 71.1 60.7 29.900 7.41 0.0 0 0.00 0.00 0.00 0.00
09/04/26 4:20:23 AM 32 0.0 0.0 52 80 71.1 60.7 29.899 7.41 0.0 0 0.00 0.00 0.00 0.00
09/04/26 4:21:33 AM 32 0.0 0.0 52 80 71.1 60.7 29.899 7.41 0.0 0 0.00 0.00 0.00 0.00
09/04/26 4:22:25 AM 30 0.0 0.0 52 80 71.1 60.7 29.901 7.41 0.0 0 0.00 0.00 0.00 0.00
09/04/26 4:23:34 AM 31 0.0 0.0 52 80 71.1 60.7 29.899 7.41 0.0 0 0.00 0.00 0.00 0.00
09/04/26 4:24:26 AM 32 0.0 0.0 52 80 71.2 60.7 29.900 7.41 0.0 0 0.00 0.00 0.00 0.00
09/04/26 4:25:17 AM 32 0.0 0.0 52 80 71.1 60.6 29.900 7.41 0.0 0 0.00 0.00 0.00 0.00
09/04/26 4:26:30 AM 28 0.0 0.0 52 80 71.1 60.6 29.900 7.41 0.0 0 0.00 0.00 0.00 0.00
09/04/26 4:27:19 AM 24 0.0 0.0 52 80 71.1 60.7 29.900 7.41 0.0 0 0.00 0.00 0.00 0.00
09/04/26 4:28:29 AM 32 0.0 0.0 52 80 71.1 60.7 29.901 7.41 0.0 0 0.00 0.00 0.00 0.00
09/04/26 4:29:20 AM 28 0.0 0.0 52 80 71.1 60.6 29.899 7.41 0.0 0 0.00 0.00 0.00 0.00
09/04/26 4:30:33 AM 34 0.0 0.0 52 80 71.1 60.6 29.900 7.41 0.0 0 0.00 0.00 0.00 0.00
09/04/26 4:31:24 AM 28 0.0 0.0 52 80 71.1 60.6 29.898 7.41 0.0 0 0.00 0.00 0.00 0.00
09/04/26 4:32:16 AM 32 0.0 0.0 52 80 71.1 60.5 29.899 7.41 0.0 0 0.00 0.00 0.00 0.00
09/04/26 4:33:29 AM 31 0.0 0.0 52 80 71.1 60.5 29.900 7.41 0.0 0 0.00 0.00 0.00 0.00
09/04/26 4:34:17 AM 32 0.0 0.0 52 80 71.1 60.5 29.900 7.41 0.0 0 0.00 0.00 0.00 0.00
09/04/26 4:35:30 AM 31 0.0 0.0 52 80 71.0 60.5 29.899 7.41 0.0 0 0.00 0.00 0.00 0.00
09/04/26 4:36:19 AM 28 0.0 0.0 52 80 71.1 60.4 29.901 7.41 0.0 0 0.00 0.00 0.00 0.00
09/04/26 4:37:31 AM 28 0.0 0.0 52 80 71.1 60.5 29.903 7.41 0.0 0 0.00 0.00 0.00 0.00
09/04/26 4:38:26 AM 30 0.0 0.0 52 80 71.1 60.4 29.901 7.41 0.0 0 0.00 0.00 0.00 0.00
09/04/26 4:39:32 AM 31 0.0 0.0 52 80 71.0 60.4 29.903 7.41 0.0 0 0.00 0.00 0.00 0.00
09/04/26 4:40:24 AM 32 0.0 0.0 52 80 71.1 60.4 29.901 7.41 0.0 0 0.00 0.00 0.00 0.00
09/04/26 4:41:37 AM 31 0.0 0.0 52 80 71.1 60.4 29.901 7.41 0.0 0 0.00 0.00 0.00 0.00
09/04/26 4:42:28 AM 30 0.0 0.0 52 80 71.1 60.4 29.904 7.41 0.0 0 0.00 0.00 0.00 0.00
09/04/26 4:43:20 AM 30 0.0 0.0 52 80 71.1 60.4 29.899 7.41 0.0 0 0.00 0.00 0.00 0.00
09/04/26 4:44:27 AM 32 0.0 0.0 52 80 71.0 60.3 29.899 7.41 0.0 0 0.00 0.00 0.00 0.00
09/04/26 4:45:21 AM 32 0.0 0.0 52 80 71.0 60.3 29.901 7.41 0.0 0 0.00 0.00 0.00 0.00
09/04/26 4:46:31 AM 32 0.0 0.0 52 80 71.0 60.3 29.901 7.41 0.0 0 0.00 0.00 0.00 0.00
09/04/26 4:47:23 AM 31 0.0 0.0 52 80 71.0 60.3 29.900 7.41 0.0 0 0.00 0.00 0.00 0.00
09/04/26 4:48:32 AM 32 0.0 0.0 52 80 71.0 60.2 29.900 7.41 0.0 0 0.00 0.00 0.00 0.00
09/04/26 4:49:24 AM 32 0.0 0.0 52 80 71.0 60.2 29.903 7.41 0.0 0 0.00 0.00 0.00 0.00
09/04/26 4:50:34 AM 31 0.0 0.0 52 79 71.1 60.2 29.903 7.41 0.0 0 0.00 0.00 0.00 0.00
09/04/26 4:51:25 AM 32 0.0 0.0 52 79 71.0 60.2 29.905 7.41 0.0 0 0.00 0.00 0.00 0.00
09/04/26 4:52:17 AM 31 0.0 0.0 52 79 71.0 60.2 29.904 7.41 0.0 0 0.00 0.00 0.00 0.00
09/04/26 4:53:30 AM 30 0.0 0.0 52 79 71.0 60.2 29.903 7.41 0.0 0 0.00 0.00 0.00 0.00
09/04/26 4:54:21 AM 27 0.0 0.0 52 80 71.0 60.1 29.904 7.41 0.0 0 0.00 0.00 0.00 0.00
09/04/26 4:55:28 AM 28 0.0 0.0 52 80 71.0 60.1 29.901 7.41 0.0 0 0.00 0.00 0.00 0.00
09/04/26 4:56:20 AM 32 0.0 0.0 52 80 71.0 60.1 29.905 7.41 0.0 0 0.00 0.00 0.00 0.00
09/04/26 4:57:33 AM 31 0.0 0.0 52 80 71.0 60.1 29.907 7.41 0.0 0 0.00 0.00 0.00 0.00
09/04/26 4:58:24 AM 31 0.0 0.0 52 80 71.0 60.1 29.905 7.41 0.0 0 0.00 0.00 0.00 0.00
09/04/26 4:59:34 AM 26 0.0 0.0 52 80 71.0 60.0 29.901 7.41 0.0 0 0.00 0.00 0.00 0.00
09/04/26 5:00:22 AM 31 0.0 0.0 52 80 71.0 60.0 29.905 7.41 0.0 0 0.00 0.00 0.00 0.00
09/04/26 5:01:35 AM 28 0.0 0.0 52 80 71.0 60.0 29.903 7.41 0.0 0 0.00 0.00 0.00 0.00
09/04/26 5:02:27 AM 28 0.0 0.0 52 80 71.0 60.0 29.903 7.41 0.0 0 0.00 0.00 0.00 0.00
09/04/26 5:03:19 AM 32 0.0 0.0 53 80 71.0 60.0 29.903 7.41 0.0 0 0.00 0.00 0.00 0.00
09/04/26 5:04:28 AM 28 0.0 0.0 53 80 71.0 60.0 29.904 7.41 0.0 0 0.00 0.00 0.00 0.00
09/04/26 5:05:23 AM 32 0.0 0.0 53 80 71.0 59.9 29.900 7.41 0.0 0 0.00 0.00 0.00 0.00
09/04/26 5:06:33 AM 31 0.0 0.0 54 80 70.9 59.9 29.900 7.41 0.0 0 0.00 0.00 0.00 0.00
09/04/26 5:07:24 AM 28 0.0 0.0 54 80 71.0 59.9 29.903 7.41 0.0 0 0.00 0.00 0.00 0.00
09/04/26 5:08:34 AM 32 0.0 0.0 54 80 70.9 59.9 29.901 7.41 0.0 0 0.00 0.00 0.00 0.00
09/04/26 5:09:29 AM 31 0.0 0.0 54 80 70.8 59.9 29.901 7.41 0.0 0 0.00 0.00 0.00 0.00
09/04/26 5:10:20 AM 28 0.0 0.0 54 80 70.7 59.9 29.900 7.41 0.0 0 0.00 0.00 0.00 0.00
09/04/26 5:11:30 AM 32 0.0 0.0 55 80 70.7 59.9 29.899 7.41 0.0 0 0.00 0.00 0.00 0.00
09/04/26 5:12:21 AM 28 0.0 0.0 55 80 70.6 59.9 29.901 7.41 0.0 0 0.00 0.00 0.00 0.00
09/04/26 5:13:34 AM 34 0.0 0.0 55 81 70.6 59.9 29.905 7.41 0.0 0 0.00 0.00 0.00 0.00
09/04/26 5:14:26 AM 34 0.0 0.0 55 81 70.5 59.9 29.901 7.41 0.0 0 0.00 0.00 0.00 0.00
09/04/26 5:15:42 AM 31 0.0 0.0 55 81 70.4 59.9 29.901 7.41 0.0 0 0.00 0.00 0.00 0.00
09/04/26 5:16:30 AM 31 0.0 0.0 55 81 70.4 59.9 29.901 7.41 0.0 0 0.00 0.00 0.00 0.00
09/04/26 5:17:19 AM 31 0.0 0.0 55 81 70.3 59.8 29.899 7.41 0.0 0 0.00 0.00 0.00 0.00
09/04/26 5:18:31 AM 31 0.0 0.0 56 81 70.2 59.8 29.901 7.41 0.0 0 0.00 0.00 0.00 0.00
09/04/26 5:19:23 AM 28 0.0 0.0 56 81 70.2 59.8 29.903 7.41 0.0 0 0.00 0.00 0.00 0.00
09/04/26 5:20:33 AM 30 0.0 0.0 56 81 70.1 59.9 29.903 7.41 0.0 0 0.00 0.00 0.00 0.00
09/04/26 5:21:24 AM 31 0.0 0.0 56 81 70.1 59.8 29.905 7.41 0.0 0 0.00 0.00 0.00 0.00
09/04/26 5:22:34 AM 31 0.0 0.0 56 81 70.0 59.8 29.907 7.41 0.0 0 0.00 0.00 0.00 0.00
09/04/26 5:23:26 AM 32 0.0 0.0 56 81 69.9 59.8 29.905 7.41 0.0 0 0.00 0.00 0.00 0.00
09/04/26 5:24:17 AM 31 0.0 0.0 56 81 69.9 59.8 29.907 7.41 0.0 0 0.00 0.00 0.00 0.00
09/04/26 5:25:30 AM 31 0.0 0.0 57 81 69.8 59.8 29.906 7.41 0.0 0 0.00 0.00 0.00 0.00
09/04/26 5:26:19 AM 28 0.0 0.0 57 81 69.8 59.8 29.905 7.41 0.0 0 0.00 0.00 0.00 0.00
09/04/26 5:27:28 AM 32 0.0 0.0 57 81 69.8 59.7 29.906 7.41 0.0 0 0.00 0.00 0.00 0.00
09/04/26 5:28:20 AM 28 0.0 0.0 57 81 69.7 59.7 29.904 7.41 0.0 0 0.00 0.00 0.00 0.00
09/04/26 5:29:33 AM 23 0.0 0.0 57 81 69.6 59.7 29.905 7.41 0.0 0 0.00 0.00 0.00 0.00
09/04/26 5:30:27 AM 31 0.0 0.0 57 81 69.6 59.7 29.906 7.41 0.0 0 0.00 0.00 0.00 0.00
09/04/26 5:31:16 AM 31 0.0 0.0 57 81 69.5 59.6 29.907 7.41 0.0 0 0.00 0.00 0.00 0.00
09/04/26 5:32:29 AM 23 0.0 0.0 57 81 69.5 59.6 29.907 7.41 0.0 0 0.00 0.00 0.00 0.00
09/04/26 5:33:17 AM 30 0.0 0.0 57 81 69.4 59.6 29.908 7.41 0.0 0 0.00 0.00 0.00 0.00
09/04/26 5:34:30 AM 31 0.0 0.0 58 80 69.4 59.6 29.909 7.41 0.0 0 0.00 0.00 0.00 0.00
09/04/26 5:35:24 AM 32 0.0 0.0 58 80 69.4 59.6 29.911 7.41 0.0 0 0.00 0.00 0.00 0.00
09/04/26 5:36:34 AM 28 0.0 0.0 58 80 69.4 59.6 29.910 7.41 0.0 0 0.00 0.00 0.00 0.00
09/04/26 5:37:26 AM 31 0.0 0.0 58 80 69.3 59.5 29.911 7.41 0.0 0 0.00 0.00 0.00 0.00
09/04/26 5:38:35 AM 35 0.0 0.0 58 80 69.3 59.5 29.910 7.41 0.0 0 0.00 0.00 0.00 0.00
09/04/26 5:39:27 AM 32 0.0 0.0 58 80 69.2 59.5 29.909 7.41 0.0 0 0.00 0.00 0.00 0.00
09/04/26 5:40:19 AM 30 0.0 0.0 58 80 69.1 59.5 29.913 7.41 0.0 0 0.00 0.00 0.00 0.00
09/04/26 5:41:31 AM 30 0.0 0.0 58 80 69.1 59.4 29.910 7.41 0.0 0 0.00 0.00 0.00 0.00
09/04/26 5:42:23 AM 28 0.0 0.0 58 81 69.0 59.4 29.912 7.41 0.0 0 0.00 0.00 0.00 0.00
09/04/26 5:43:33 AM 28 0.0 0.0 58 81 69.0 59.4 29.912 7.41 0.0 0 0.00 0.00 0.00 0.00
09/04/26 5:44:21 AM 32 0.0 0.0 59 81 68.9 59.4 29.910 7.41 0.0 0 0.00 0.00 0.00 0.00
09/04/26 5:45:37 AM 31 0.0 0.0 59 81 68.9 59.4 29.913 7.41 0.0 0 0.00 0.00 0.00 0.00
09/04/26 5:46:26 AM 32 0.0 0.0 59 81 68.9 59.4 29.911 7.41 0.0 0 0.00 0.00 0.00 0.00
09/04/26 5:47:17 AM 31 0.0 0.0 59 81 68.8 59.4 29.911 7.41 0.0 0 0.00 0.00 0.00 0.00
09/04/26 5:48:30 AM 26 0.0 0.0 59 81 68.8 59.4 29.913 7.41 0.0 0 0.00 0.00 0.00 0.00
09/04/26 5:49:19 AM 31 0.0 0.0 59 81 68.8 59.3 29.910 7.41 0.0 0 0.00 0.00 0.00 0.00
09/04/26 5:50:28 AM 35 0.0 0.0 59 81 68.7 59.3 29.915 7.41 0.0 0 0.00 0.00 0.00 0.00
09/04/26 5:51:23 AM 34 0.0 0.0 59 81 68.6 59.3 29.913 7.41 0.0 0 0.00 0.00 0.00 0.00
09/04/26 5:52:36 AM 32 0.0 0.0 59 81 68.6 59.3 29.913 7.41 0.0 0 0.00 0.00 0.00 0.00
09/04/26 5:53:24 AM 31 0.0 0.0 59 82 68.6 59.3 29.915 7.41 0.0 0 0.00 0.00 0.00 0.00
09/04/26 5:54:34 AM 28 0.0 0.0 60 82 68.6 59.3 29.916 7.41 0.0 0 0.00 0.00 0.00 0.00
09/04/26 5:55:26 AM 24 0.0 0.0 60 82 68.6 59.3 29.913 7.41 0.0 0 0.00 0.00 0.00 0.00
09/04/26 5:56:17 AM 32 0.0 0.0 60 82 68.5 59.3 29.918 7.41 0.0 0 0.00 0.00 0.00 0.00
09/04/26 5:57:30 AM 35 0.0 0.0 60 82 68.5 59.2 29.919 7.41 0.0 0 0.00 0.00 0.00 0.00
09/04/26 5:58:22 AM 31 0.0 0.0 60 82 68.5 59.2 29.916 7.41 0.0 0 0.00 0.00 0.00 0.00
09/04/26 5:59:28 AM 30 0.0 0.0 60 82 68.4 59.2 29.918 7.41 0.0 0 0.00 0.00 0.00 0.00
09/04/26 6:00:20 AM 32 0.0 0.0 60 82 68.4 59.2 29.918 7.41 0.0 0 0.00 0.00 0.00 0.00
09/04/26 6:01:33 AM 31 0.0 0.0 60 82 68.4 59.2 29.917 7.41 0.0 0 0.00 0.00 0.00 0.00
09/04/26 6:02:27 AM 34 0.0 0.0 60 82 68.3 59.1 29.914 7.41 0.0 0 0.00 0.00 0.00 0.00
09/04/26 6:03:16 AM 34 0.0 0.0 60 82 68.3 59.1 29.918 7.41 0.0 0 0.00 0.00 0.00 0.00
09/04/26 6:04:29 AM 32 0.0 0.0 60 82 68.3 59.1 29.919 7.41 0.0 0 0.00 0.00 0.00 0.00
09/04/26 6:05:17 AM 28 0.0 0.0 60 82 68.3 59.1 29.918 7.41 0.0 0 0.00 0.00 0.00 0.00
09/04/26 6:06:30 AM 31 0.0 0.0 60 82 68.2 59.1 29.918 7.41 0.0 0 0.00 0.00 0.00 0.00
09/04/26 6:07:22 AM 26 0.0 0.0 61 82 68.3 59.1 29.917 7.41 0.0 0 0.00 0.00 0.00 0.00
09/04/26 6:08:31 AM 31 0.0 0.0 61 82 68.2 59.1 29.918 7.41 0.0 0 0.00 0.00 0.00 0.00
09/04/26 6:09:26 AM 34 0.0 0.0 61 82 68.2 59.1 29.919 7.41 0.0 0 0.00 0.00 0.00 0.00
09/04/26 6:10:33 AM 27 0.0 0.0 61 83 68.2 59.1 29.918 7.41 0.0 0 0.00 0.00 0.00 0.00
09/04/26 6:11:24 AM 31 0.0 0.0 61 83 68.1 59.1 29.919 7.41 0.0 0 0.00 0.00 0.00 0.00
09/04/26 6:12:37 AM 26 0.0 0.0 61 83 68.1 59.1 29.916 7.41 0.0 0 0.00 0.00 0.00 0.00
09/04/26 6:13:29 AM 31 0.0 0.0 61 83 68.1 59.1 29.917 7.41 0.0 0 0.00 0.00 0.00 0.00
09/04/26 6:14:20 AM 28 0.0 0.0 61 83 68.1 59.1 29.915 7.41 0.0 0 0.00 0.00 0.00 0.00
09/04/26 6:15:30 AM 34 0.0 0.0 61 83 68.0 59.1 29.917 7.41 0.0 0 0.00 0.00 0.00 0.00
09/04/26 6:16:19 AM 24 0.0 0.0 61 83 68.0 59.1 29.917 7.41 0.0 0 0.00 0.00 0.00 0.00
09/04/26 6:17:31 AM 31 0.0 0.0 61 83 68.0 59.1 29.916 7.41 0.0 0 0.00 0.00 0.00 0.00
09/04/26 6:18:23 AM 31 0.0 0.0 61 83 68.0 59.1 29.916 7.41 0.0 0 0.00 0.00 0.00 0.00
09/04/26 6:19:36 AM 31 0.0 0.0 61 83 67.9 59.2 29.916 7.41 0.0 0 0.00 0.00 0.00 0.00
09/04/26 6:20:27 AM 31 0.0 0.0 61 83 67.9 59.2 29.917 7.41 0.0 0 0.00 0.00 0.00 0.00
09/04/26 6:21:37 AM 34 0.0 0.0 61 83 67.9 59.2 29.916 7.41 0.0 0 0.00 0.00 0.00 0.00
09/04/26 6:22:29 AM 32 0.0 0.0 61 83 67.9 59.2 29.916 7.41 0.0 0 0.00 0.00 0.00 0.00
09/04/26 6:23:20 AM 34 0.0 0.0 61 83 67.8 59.3 29.916 7.41 0.0 0 0.00 0.00 0.00 0.00
09/04/26 6:24:30 AM 32 0.0 0.0 61 83 67.8 59.3 29.915 7.41 0.0 0 0.00 0.00 0.00 0.00
09/04/26 6:25:25 AM 28 0.0 0.0 61 83 67.8 59.3 29.914 7.41 0.0 0 0.00 0.00 0.00 0.00
09/04/26 6:26:31 AM 26 0.0 0.0 62 83 67.8 59.3 29.914 7.41 0.0 0 0.00 0.00 0.00 0.00
09/04/26 6:27:23 AM 34 0.0 0.0 62 83 67.8 59.2 29.915 7.41 0.0 0 0.00 0.00 0.00 0.00
09/04/26 6:28:18 AM 28 0.0 0.0 62 83 67.7 59.2 29.915 7.41 0.0 0 0.00 0.00 0.00 0.00
09/04/26 6:29:27 AM 31 0.0 0.0 62 83 67.7 59.2 29.913 7.41 0.0 5 0.00 0.00 0.00 0.00
09/04/26 6:30:22 AM 32 0.0 0.0 62 84 67.7 59.2 29.913 7.41 0.0 5 0.00 0.00 0.00 0.00
09/04/26 6:31:29 AM 31 0.0 0.0 62 84 67.7 59.2 29.913 7.41 0.0 5 0.00 0.00 0.00 0.00
09/04/26 6:32:21 AM 30 0.0 0.0 62 84 67.7 59.3 29.914 7.41 0.0 5 0.00 0.00 0.00 0.00
09/04/26 6:33:30 AM 34 0.0 0.0 62 84 67.7 59.3 29.915 7.41 0.0 5 0.00 0.00 0.00 0.00
09/04/26 6:34:25 AM 32 0.0 0.0 62 83 67.7 59.2 29.914 7.41 0.0 5 0.00 0.00 0.00 0.00
09/04/26 6:35:35 AM 31 0.0 0.0 62 83 67.7 59.2 29.915 7.41 0.0 5 0.00 0.00 0.00 0.00
09/04/26 6:36:26 AM 27 0.0 0.0 62 83 67.7 59.2 29.915 7.41 0.0 7 0.00 0.00 0.00 0.00
09/04/26 6:37:15 AM 34 0.0 0.0 62 83 67.7 59.2 29.916 7.41 0.0 7 0.00 0.00 0.00 0.00
09/04/26 6:38:28 AM 32 0.0 0.0 62 83 67.7 59.2 29.917 7.41 0.0 7 0.00 0.00 0.00 0.00
09/04/26 6:39:19 AM 30 0.0 0.0 62 83 67.7 59.2 29.916 7.41 0.0 7 0.00 0.00 0.00 0.00
09/04/26 6:40:32 AM 28 0.0 0.0 62 83 67.7 59.2 29.917 7.41 0.0 9 0.00 0.00 0.00 0.00
09/04/26 6:41:24 AM 32 0.0 0.0 62 83 67.6 59.2 29.915 7.41 0.0 9 0.00 0.00 0.00 0.00
09/04/26 6:42:31 AM 30 0.0 0.0 62 83 67.6 59.1 29.917 7.41 0.0 9 0.00 0.00 0.00 0.00
09/04/26 6:43:22 AM 32 0.0 0.0 62 83 67.6 59.1 29.917 7.41 0.0 9 0.00 0.00 0.00 0.00
09/04/26 6:44:32 AM 28 0.0 0.0 62 83 67.6 59.1 29.918 7.41 0.0 11 0.00 0.00 0.00 0.00
09/04/26 6:45:27 AM 30 0.0 0.0 62 83 67.6 59.1 29.918 7.41 0.0 11 0.00 0.00 0.00 0.00
09/04/26 6:46:19 AM 32 0.0 0.0 62 83 67.6 59.1 29.915 7.41 0.0 12 0.00 0.00 0.00 0.00
09/04/26 6:47:25 AM 26 0.0 0.0 62 83 67.6 59.1 29.916 7.41 0.0 12 0.00 0.00 0.00 0.00
09/04/26 6:48:17 AM 28 0.0 0.0 62 83 67.5 59.1 29.917 7.41 0.0 14 0.00 0.00 0.00 0.00
09/04/26 6:49:30 AM 28 0.0 0.0 62 83 67.5 59.1 29.915 7.41 0.0 14 0.00 0.00 0.00 0.00
09/04/26 6:50:24 AM 32 0.0 0.0 62 83 67.5 59.1 29.915 7.41 0.0 16 0.00 0.00 0.00 0.00
09/04/26 6:51:34 AM 34 0.0 0.0 62 83 67.5 59.1 29.916 7.41 0.0 18 0.00 0.00 0.00 0.00
09/04/26 6:52:26 AM 27 0.0 0.0 62 83 67.5 59.1 29.916 7.41 0.0 18 0.00 0.00 0.00 0.00
09/04/26 6:53:35 AM 30 0.0 0.0 62 83 67.5 59.1 29.916 7.41 0.0 21 0.00 0.00 0.00 0.00
09/04/26 6:54:27 AM 29 0.0 0.0 62 83 67.5 59.1 29.916 7.41 0.0 21 0.00 0.00 0.00 0.00
09/04/26 6:55:19 AM 32 0.0 0.0 62 83 67.4 59.0 29.916 7.41 0.0 21 0.00 0.00 0.00 0.00
09/04/26 6:56:31 AM 31 0.0 0.0 62 83 67.4 59.1 29.916 7.41 0.0 21 0.00 0.00 0.00 0.00
09/04/26 6:57:20 AM 28 0.0 0.0 62 84 67.4 59.0 29.917 7.41 0.0 21 0.00 0.00 0.00 0.00
09/04/26 6:58:30 AM 32 0.0 0.0 62 84 67.4 59.1 29.915 7.41 0.0 25 0.00 0.00 0.00 0.00
09/04/26 6:59:25 AM 31 0.0 0.0 62 84 67.4 59.1 29.917 7.41 0.0 28 0.00 0.00 0.00 0.00
09/04/26 7:00:34 AM 30 0.0 0.0 62 84 67.4 59.1 29.917 7.41 0.0 26 0.00 0.00 0.00 0.00
09/04/26 7:01:26 AM 32 0.0 0.0 62 84 67.4 59.1 29.919 7.41 0.0 26 0.00 0.00 0.00 0.00
09/04/26 7:02:18 AM 31 0.0 0.0 62 84 67.4 59.2 29.918 7.41 0.0 26 0.00 0.00 0.00 0.00
09/04/26 7:03:24 AM 28 0.0 0.0 63 84 67.4 59.2 29.920 7.41 0.0 33 0.00 0.00 0.00 0.00
09/04/26 7:04:16 AM 26 0.0 0.0 63 84 67.4 59.2 29.921 7.41 0.0 33 0.00 0.00 0.00 0.00
09/04/26 7:05:29 AM 32 0.0 0.0 63 84 67.4 59.2 29.920 7.41 0.0 33 0.00 0.00 0.00 0.00
09/04/26 7:06:20 AM 32 0.0 0.0 63 84 67.4 59.3 29.921 7.41 0.0 39 0.00 0.00 0.00 0.00
09/04/26 7:07:33 AM 32 0.0 0.0 63 84 67.4 59.2 29.923 7.41 0.0 47 0.00 0.00 0.00 0.00
09/04/26 7:08:25 AM 28 0.0 0.0 63 84 67.4 59.3 29.921 7.41 0.0 47 0.00 0.00 0.00 0.00
09/04/26 7:09:35 AM 28 0.0 0.0 63 84 67.4 59.3 29.923 7.41 0.0 58 0.00 0.00 0.00 0.00
09/04/26 7:10:23 AM 32 0.0 0.0 63 84 67.4 59.3 29.921 7.41 0.0 58 0.00 0.00 0.00 0.00
09/04/26 7:11:18 AM 32 0.0 0.0 63 84 67.3 59.3 29.925 7.41 0.0 62 0.00 0.00 0.00 0.00
09/04/26 7:12:28 AM 31 0.0 0.0 63 84 67.3 59.3 29.921 7.41 0.0 63 0.00 0.00 0.00 0.00
09/04/26 7:13:19 AM 32 0.0 0.0 63 84 67.3 59.3 29.923 7.41 0.0 63 0.00 0.00 0.00 0.00
09/04/26 7:14:29 AM 31 0.0 0.0 63 84 67.3 59.4 29.923 7.41 0.0 70 0.00 0.00 0.00 0.00
09/04/26 7:15:21 AM 32 0.0 0.0 63 84 67.3 59.4 29.924 7.41 0.0 74 0.00 0.00 0.00 0.00
09/04/26 7:16:30 AM 34 0.0 0.0 63 84 67.3 59.5 29.924 7.41 0.0 77 0.00 0.00 0.00 0.00
09/04/26 7:17:25 AM 32 0.0 0.0 63 84 67.3 59.5 29.927 7.41 0.0 77 0.00 0.00 0.00 0.00
09/04/26 7:18:35 AM 30 0.0 0.0 63 84 67.4 59.6 29.927 7.41 0.0 83 0.00 0.00 0.00 0.00
09/04/26 7:19:23 AM 30 0.0 0.0 63 84 67.4 59.6 29.925 7.41 0.0 84 0.00 0.00 0.00 0.00
09/04/26 7:20:36 AM 32 0.0 0.0 63 84 67.4 59.6 29.927 7.41 0.0 88 0.00 0.00 0.00 0.00
09/04/26 7:21:28 AM 27 0.0 0.0 63 84 67.4 59.7 29.926 7.41 0.0 88 0.00 0.00 0.00 0.00
09/04/26 7:22:19 AM 34 0.0 0.0 63 84 67.3 59.8 29.925 7.41 0.0 93 0.00 0.00 0.00 0.00
09/04/26 7:23:29 AM 31 0.0 0.0 63 84 67.3 59.8 29.926 7.41 0.0 93 0.00 0.00 0.00 0.00
09/04/26 7:24:24 AM 30 0.0 0.0 63 84 67.3 59.9 29.927 7.41 0.0 93 0.00 0.00 0.00 0.00
09/04/26 7:25:31 AM 34 0.0 0.0 63 84 67.4 59.9 29.927 7.41 0.0 105 0.00 0.00 0.00 0.00
09/04/26 7:26:22 AM 32 0.0 0.0 63 84 67.4 60.0 29.927 7.41 0.0 107 0.00 0.00 0.00 0.00
09/04/26 7:27:32 AM 28 0.0 0.0 63 84 67.4 60.1 29.928 7.41 0.0 107 0.00 0.00 0.00 0.00
09/04/26 7:28:27 AM 28 0.0 0.0 63 84 67.4 60.2 29.929 7.41 0.0 107 0.00 0.00 0.00 0.00
09/04/26 7:29:18 AM 28 0.0 0.0 63 84 67.4 60.2 29.930 7.41 0.0 107 0.00 0.00 0.00 0.00
09/04/26 7:30:28 AM 31 0.0 0.0 63 84 67.4 60.3 29.930 7.41 0.0 120 0.00 0.00 0.00 0.00
09/04/26 7:31:17 AM 31 0.0 0.0 63 84 67.4 60.4 29.930 7.41 0.0 121 0.00 0.00 0.00 0.00
09/04/26 7:32:30 AM 26 0.0 0.0 63 85 67.4 60.5 29.930 7.41 0.0 125 0.00 0.00 0.00 0.00
09/04/26 7:33:21 AM 35 0.0 0.0 63 85 67.4 60.7 29.932 7.41 0.0 125 0.00 0.00 0.00 0.00
09/04/26 7:34:34 AM 28 0.0 0.0 63 85 67.4 60.8 29.928 7.41 0.0 125 0.00 0.00 0.00 0.00
09/04/26 7:35:23 AM 30 0.0 0.0 63 85 67.5 60.9 29.929 7.41 0.0 134 0.00 0.00 0.00 0.00
09/04/26 7:36:32 AM 31 0.0 0.0 63 85 67.4 61.1 29.929 7.41 0.0 137 0.00 0.00 0.00 0.00
09/04/26 7:37:27 AM 28 0.0 0.0 63 84 67.5 61.2 29.929 7.41 0.0 139 0.00 0.00 0.00 0.00
09/04/26 7:38:19 AM 28 0.0 0.0 63 84 67.5 61.3 29.931 7.41 0.0 142 0.00 0.00 0.00 0.00
09/04/26 7:39:29 AM 34 0.0 0.0 63 84 67.5 61.5 29.930 7.41 0.0 149 0.00 0.00 0.00 0.00
09/04/26 7:40:20 AM 27 0.0 0.0 63 84 67.5 61.6 29.931 7.41 0.0 153 0.00 0.00 0.00 0.00
09/04/26 7:41:30 AM 28 0.0 0.0 63 84 67.5 61.7 29.929 7.41 0.0 156 0.00 0.00 0.00 0.00
09/04/26 7:42:22 AM 31 0.0 0.0 63 84 67.5 61.7 29.930 7.41 0.0 156 0.00 0.00 0.00 0.00
09/04/26 7:43:34 AM 30 0.0 0.0 63 84 67.5 61.9 29.930 7.41 0.0 162 0.00 0.00 0.00 0.00
09/04/26 7:44:26 AM 31 0.0 0.0 64 84 67.5 61.9 29.931 7.41 0.0 165 0.00 0.00 0.00 0.00
09/04/26 7:45:42 AM 35 0.0 0.0 64 84 67.6 62.1 29.930 7.41 0.0 167 0.00 0.00 0.00 0.00
09/04/26 7:46:28 AM 30 0.0 0.0 64 84 67.6 62.2 29.930 7.41 0.0 167 0.00 0.00 0.00 0.00
09/04/26 7:47:19 AM 27 0.0 0.0 64 83 67.6 62.3 29.932 7.41 0.0 167 0.00 0.00 0.00 0.00
09/04/26 7:48:29 AM 31 0.0 0.0 64 83 67.6 62.5 29.931 7.41 0.0 176 0.00 0.00 0.00 0.00
09/04/26 7:49:21 AM 32 0.0 0.0 64 83 67.6 62.6 29.929 7.41 0.0 176 0.00 0.00 0.00 0.00
09/04/26 7:50:31 AM 31 0.0 0.0 64 83 67.6 62.8 29.929 7.41 0.0 176 0.00 0.00 0.00 0.00
09/04/26 7:51:25 AM 32 0.0 0.0 64 82 67.6 62.9 29.929 7.41 0.0 181 0.00 0.00 0.00 0.00
09/04/26 7:52:32 AM 31 0.0 0.0 64 82 67.7 63.1 29.931 7.41 0.0 183 0.00 0.00 0.00 0.00
09/04/26 7:53:24 AM 32 0.0 0.0 64 82 67.7 63.2 29.930 7.41 0.0 183 0.00 0.00 0.00 0.00
09/04/26 7:54:36 AM 28 0.0 0.0 64 82 67.7 63.4 29.931 7.41 0.0 183 0.00 0.00 0.00 0.00
09/04/26 7:55:28 AM 31 0.0 0.0 64 82 67.7 63.5 29.931 7.41 0.0 183 0.00 0.00 0.00 0.00
09/04/26 7:56:20 AM 32 0.0 0.0 64 82 67.7 63.6 29.931 7.41 0.0 183 0.00 0.00 0.00 0.00
09/04/26 7:57:27 AM 32 0.0 0.0 64 81 67.7 63.7 29.930 7.41 0.0 183 0.00 0.00 0.00 0.00
09/04/26 7:58:18 AM 31 0.0 0.0 64 81 67.7 63.8 29.931 7.41 0.0 181 0.00 0.00 0.00 0.00
09/04/26 7:59:31 AM 30 0.0 0.0 64 81 67.8 64.0 29.929 7.41 0.0 181 0.00 0.00 0.00 0.00
09/04/26 8:00:23 AM 31 0.0 0.0 64 81 67.8 64.0 29.926 7.41 0.0 181 0.00 0.00 0.00 0.00
09/04/26 8:01:36 AM 31 0.0 0.0 64 80 67.8 64.2 29.928 7.41 0.0 181 0.00 0.00 0.00 0.00
09/04/26 8:02:21 AM 26 0.0 0.0 64 80 67.8 64.3 29.927 7.41 0.0 181 0.00 0.00 0.00 0.00
09/04/26 8:03:31 AM 30 0.0 0.0 65 80 67.8 64.4 29.928 7.41 0.5 181 0.00 0.00 0.00 0.00
09/04/26 8:04:26 AM 31 0.0 0.0 65 80 67.8 64.6 29.926 7.41 0.5 183 0.00 0.00 0.00 0.00
09/04/26 8:05:17 AM 28 0.0 0.0 65 79 67.8 64.7 29.926 7.41 0.5 183 0.00 0.00 0.00 0.00
09/04/26 8:06:30 AM 31 0.0 0.0 65 79 67.9 64.8 29.926 7.41 0.5 188 0.00 0.00 0.00 0.00
09/04/26 8:07:22 AM 32 0.0 0.0 65 79 67.9 64.9 29.929 7.41 0.5 193 0.00 0.00 0.00 0.00
09/04/26 8:08:29 AM 32 0.0 0.0 65 79 67.8 65.0 29.925 7.41 0.5 193 0.00 0.00 0.00 0.00
09/04/26 8:09:20 AM 31 0.0 0.0 65 78 67.9 65.1 29.925 7.41 0.5 193 0.00 0.00 0.00 0.00
09/04/26 8:10:33 AM 34 0.0 0.0 65 78 67.9 65.4 29.924 7.41 0.5 211 0.00 0.00 0.00 0.00
09/04/26 8:11:25 AM 31 0.0 0.0 65 78 67.9 65.5 29.928 7.41 0.5 227 0.00 0.00 0.00 0.00
09/04/26 8:12:20 AM 31 0.0 0.0 65 78 67.9 65.6 29.926 7.41 0.5 234 0.00 0.00 0.00 0.00
09/04/26 8:13:27 AM 31 0.0 0.0 65 77 67.9 65.7 29.926 7.41 0.6 241 0.00 0.00 0.00 0.00
09/04/26 8:14:18 AM 29 0.0 0.0 65 77 67.9 65.8 29.926 7.41 0.6 241 0.00 0.00 0.00 0.00
09/04/26 8:15:31 AM 30 0.0 0.0 65 77 68.0 65.9 29.926 7.41 0.6 241 0.00 0.00 0.00 0.00
09/04/26 8:16:23 AM 30 0.0 0.0 65 76 68.0 66.0 29.926 7.41 0.6 241 0.00 0.00 0.00 0.00
09/04/26 8:17:36 AM 28 0.0 0.0 65 76 68.0 66.1 29.925 7.41 0.6 271 0.00 0.00 0.00 0.00
09/04/26 8:18:24 AM 31 0.0 0.0 65 76 68.1 66.2 29.926 7.41 0.6 276 0.00 0.00 0.00 0.00
09/04/26 8:19:37 AM 31 0.0 0.0 65 75 68.1 66.4 29.925 7.41 0.7 281 0.00 0.00 0.00 0.00
09/04/26 8:20:29 AM 32 0.0 0.0 65 75 68.1 66.5 29.927 7.41 0.7 285 0.00 0.00 0.00 0.00
09/04/26 8:21:20 AM 31 0.0 0.0 65 75 68.1 66.7 29.929 7.41 0.7 285 0.00 0.00 0.00 0.00
09/04/26 8:22:33 AM 28 0.0 0.0 65 75 68.1 66.8 29.930 7.41 0.7 294 0.00 0.00 0.00 0.00
09/04/26 8:23:25 AM 30 0.0 0.0 65 74 68.1 67.0 29.930 7.41 0.7 294 0.00 0.00 0.00 0.00
09/04/26 8:24:32 AM 31 0.0 0.0 65 74 68.1 67.1 29.930 7.41 0.7 301 0.00 0.00 0.00 0.00
09/04/26 8:25:23 AM 31 2.0 3.0 65 74 68.1 67.2 29.929 7.41 0.7 304 0.00 0.00 0.00 0.00
09/04/26 8:26:36 AM 28 2.0 3.0 65 73 68.1 67.3 29.926 7.41 0.8 306 0.00 0.00 0.00 0.00
09/04/26 8:27:28 AM 31 3.0 4.0 65 73 68.2 67.4 29.931 7.41 0.8 309 0.00 0.00 0.00 0.00
09/04/26 8:28:20 AM 34 2.0 4.0 65 73 68.2 67.4 29.926 7.41 0.8 309 0.00 0.00 0.00 0.00
09/04/26 8:29:26 AM 31 3.0 4.0 65 72 68.3 67.5 29.931 7.41 0.8 316 0.00 0.00 0.00 0.00
09/04/26 8:30:21 AM 30 3.0 4.0 65 72 68.2 67.5 29.929 7.41 0.8 320 0.00 0.00 0.00 0.00
09/04/26 8:31:31 AM 31 2.0 4.0 65 72 68.3 67.5 29.927 7.41 0.8 320 0.00 0.00 0.00 0.00
09/04/26 8:32:23 AM 32 2.0 4.0 65 72 68.3 67.6 29.927 7.41 0.8 320 0.00 0.00 0.00 0.00
09/04/26 8:33:35 AM 31 2.0 4.0 65 72 68.3 67.6 29.926 7.41 0.8 327 0.00 0.00 0.00 0.00
09/04/26 8:34:24 AM 32 1.0 4.0 65 71 68.3 67.6 29.927 7.41 0.8 327 0.00 0.00 0.00 0.00
09/04/26 8:35:34 AM 30 2.0 4.0 65 72 68.3 67.6 29.930 7.41 0.9 327 0.00 0.00 0.00 0.00
09/04/26 8:36:26 AM 32 3.0 4.0 65 72 68.4 67.7 29.926 7.41 0.9 338 0.00 0.00 0.00 0.00
09/04/26 8:37:17 AM 31 1.0 4.0 65 71 68.4 67.7 29.926 7.41 0.9 341 0.00 0.00 0.00 0.00

University Police wind advisory reference

For campus closure information please call the campus Emergency Hotline at (909) 537-5999

© All rights reserved. Unauthorized duplication or distribution is prohibited

Never base important decisions on this or any weather information obtained from the Internet

California State University, San Bernardino
5500 University Parkway, San Bernardino, CA. 92407
Phone: (909) 537-5108, Email: Weather Webmaster
Last Updated: